COSMOS 2289 (GLONASS)

Satellite information

Favourite Embed

Satellite Type and Status

PAYLOADIN ORBIT

Key statistics

Satellite COSMOS 2289 (GLONASS) at a glance.

Uptime

11228

Days in orbit

Revolutions

≈ 2.1

Per day

Orbit

MEO

Medium Earth Orbit

Inclination

65.4

Latest

Satellite identification and parameters

Extended collection of information and parameters for COSMOS 2289 (GLONASS).

Object identification

Identified? True

Debris? False

Object name: COSMOS 2289 (GLONASS)

International designator: 1994-050B

Object number (NORAD): 23204

Object ID (CCSDS): 23204

Country: COMMONWEALTH OF INDEPENDENT STATES (CIS)

Current information (Y/N): Y

RCS size: LARGE

Orbital parameters

Period: 675.73 minutes

Inclination: 65.4058 deg

SMA: 25507.943 km

Apoapsis: 19152.753 km

Periapsis: 19106.864 km

RAAN: 215.2874 deg

Eccentricy: 0.0008995

Argument of periapsis: 324.4037 deg

Mean anomaly: 35.5696 deg

Mean motion: 2.13103019 rev/day

Mean motion (dot): -0.00000035 rev/day2

B* drag term: 0.0 1/REarth

Two-line elements (TLE)

Creation date: May 7, 2025, 3:14 a.m.

Reference frame: TEME

Reference center: EARTH

Epoch: May 5, 2025, 11:27 p.m. UTC

TLE line 0: 0 COSMOS 2289 (GLONASS)

TLE line 1: 1 23204U 94050B 25125.97746888 -.00000035 00000-0 00000-0 0 9990

TLE line 2: 2 23204 65.4058 215.2874 0008995 324.4037 35.5696 2.13103019238999

Live tracking on map

Real-time ground track for satellite COSMOS 2289 (GLONASS).

In-orbit conjunctions

A list of the most updated potential collisions computed for object COSMOS 2289 (GLONASS).

Target Orbit TCA Probability of collision Miss distance Type
COSMOS 2444 (GLONASS) MEO 2025-05-09 10:06:56 TBA 4585.0 (m) PAYLOAD
SL-12 R/B(2) MEO 2024-10-18 17:02:21 TBA 3571.0 (m) ROCKET BODY

Associated space launch

GLONASS navigation satellites

COSMOS 2289 (GLONASS) was lifted into orbit during the mission ‘Proton | Uragan 57 to 59’, on board a Proton space rocket.

The launch took place on Aug. 11, 1994, 3:27 p.m. from 81/23 (81L).

For more information about the launch, click the button.

Launch to space Proton | Uragan 57 to 59
Proton | Uragan 57 to 59

Agency: N/A

Status: Launch Successful

Launch date: Aug. 11, 1994, 3:27 p.m. UTC

Rocket: Proton

Launch pad: 81/23 (81L)

Location: Baikonur Cosmodrome, Republic of Kazakhstan

...

Latest news about this satellite

There are no fresh news available about this satellite. Check back as we update our databases every day.


Newsletter sign-up

Weekly statistics, charts and insights to help you stay on top of the space industry.